DECAYED

STARLINK-1503, 45745 (Decayed)

Orbit data source: Space-Track

STARLINK-1503, 45745 was a payload satellite owned by SpaceX/Seattle (US) in LEO that was launched on Sat, 13 Jun 2020 UTC via an FALCON 9 launch vehicle from the Air Force Eastern Test Range (AFETR). Payload-class satellites include a variety of spacecraft equipped with specific instruments for various scientific and technological missions. These include communications satellites like Starlink; space stations such as the ISS; scientific satellites like the Hubble; Earth observation satellites from companies like Planet Labs, Umbra, and HawkEye 360; GPS; miniature CubeSats for education and research; and military/defense satellites.

Not visible in the next 10 days
Identifier
45745, 2020-038R
Orbit
Decayed
Country
Flag of USUS
Related business
Manufacturer
SpaceX/Seattle
Mission
Decayed Commercial Communications
Bus & Motor
STARLINK, Unknown motor
Mass
260 kg wet, ~248 kg dry
Launch date (UTC)
2020-06-13 (5 years ago)
Launch vehicle
FALCON 9
Launch site
Air Force Eastern Test Range (AFETR)
Object type
Payload
Rocket body
Debris
Shape & HBR
Box + 1 Pan, 10.1 m
Radar Cross Section
13.562 m², Large (>1 m²)

Expand to show TLE details & history
Last TLE update: 5 months ago

TLE from 5 months ago
0 STARLINK-1503
1 45745U 20038R   25135.31472693  .17840314  12544-4  31339-3 0  9999
2 45745  53.0230  82.1344 0007926 261.4790 237.1933 16.47241954272883
Epoch: 2025-05-15T07:33Z
TLE epoch observation values (Epoch: 2025-05-15T07:33:12.406Z)
Latitude
32.00041°
Longitude
-112.34367°
Altitude
151.431 km
Speed
7.818 km/s
True Right ascension
15h 36m 58s
True Declination
31° 49' 54"
Sunlit
Object was in full shadow at epoch
Visualization orbit readout
Latitude
Unknown
Longitude
Unknown
Altitude
Unknown
Speed
Unknown
Apparent Right ascension
Unknown
Apparent Declination
Unknown
Sunlit
N/A
Visualization observer readout
Local Sidereal Time
23:24:09
Azimuth
Unknown
Elevation
Unknown
Doppler factor
Unknown
Orbital elements
Apogee altitude
152.072 km
Perigee altitude
141.729 km
Semi-major axis
6,525.038 km
Eccentricity
0.00079
Inclination
53.023°
RAAN
82.1344°
Arg. of periapsis
261.479°
True anomaly
237.117°
Mean anomaly
237.1933°
Eccentric anomaly
237.15515°
Mean motion
4.11783 °/min
Orbital period
87.42 mins
BSTAR
0.00031339
Loading maneuver chart data...
Computing Atmospheric mass density...
Loading historical data...
Loading historical data...
Loading historical data...
Loading historical data...
Loading historical data...
Loading historical data...
Loading historical data...

Documentation

Showing up to 5 results
|